Regional Weather Roundup
Issued by NWS

Home | Current Version | Previous Version | Text Only | Print | Product List | Glossary On
Versions: 1 2 3 4 5 6 7 8 9 10 11 12 13 14 15 16 17 18 19 20 21 22 23 24 25 26 27 28 29 30 31 32 33 34 35 36 37 38 39 40 41 42 43 44 45 46 47 48 49 50
217
ASUS43 KMPX 240901
RWRMN
WEATHER ROUNDUP FOR MINNESOTA
NATIONAL WEATHER SERVICE TWIN CITIES/CHANHASSEN MN
400 AM CDT WED MAY 24 2017


NOTE: "FAIR" INDICATES FEW OR NO CLOUDS BELOW 12,000 FEET WITH NO
SIGNIFICANT WEATHER AND/OR OBSTRUCTIONS TO VISIBILITY. N/A MEANS
CURRENT SKY AND/OR WEATHER CONDITIONS ARE NOT AVAILABLE.

MNZ060>063-068>070-241000-
   Twin Cities Metro

CITY           SKY/WX    TMP DP  RH WIND       PRES   REMARKS
TWIN CITIES    PTCLDY    47  42  83 N8        29.79F
ST PAUL        CLEAR     47  44  90 N5        29.80F
CRYSTAL        CLOUDY    49  42  77 N7        29.79S
BLAINE         PTCLDY    48  45  87 MISG      29.80S
LAKEVILLE      CLEAR     45  43  93 N5        29.78S
EDEN PRAIRIE   PTCLDY    47  43  86 N8        29.78F
SOUTH ST PAUL  CLEAR     48  43  82 N7        29.78F
LAKE ELMO      FAIR      45  43  93 N7        29.80S
$$
MNZ001>005-007-008-013>017-022>024-027-028-241000-
   Northwest Minnesota

CITY           SKY/WX    TMP DP  RH WIND       PRES   REMARKS
BEMIDJI        CLEAR     34  34  99 CALM      29.87F FOG
HALLOCK        CLOUDY    43  39  87 SE7       29.87F
ROSEAU         CLEAR     37  34  87 CALM      29.88F
WARROAD        PTCLDY    39  37  93 CALM      29.89F
CROOKSTON      CLEAR     39  37  93 CALM      29.89S
FOSSTON        CLEAR     36  36 100 CALM      29.88F
DETROIT LAKES  CLEAR     43  41  93 NE5       29.88S
MOORHEAD       CLEAR     39  37  93 CALM      29.87F
PARK RAPIDS    PTCLDY    44  40  85 N6        29.85F
MAHNOMEN       FAIR      36  35  99 CALM      29.87F
$$
MNZ006-009>011-018-025>026-241000-
   North Central Minnesota

CITY           SKY/WX    TMP DP  RH WIND       PRES   REMARKS
BAUDETTE       CLEAR     35  35 100 CALM      29.88F FOG
FLAG ISLAND    CLEAR     52  41  66 CALM      29.87F
INTL FALLS     CLEAR     33  29  85 CALM      29.88S
WASKISH        CLEAR     34  34 100 CALM      29.88F
BIG FORK       MOCLDY    30  30 100 CALM      29.87S
LONGVILLE      CLEAR     43  43 100 CALM      29.85F
GRAND RAPIDS   CLEAR     40  39  97 CALM      29.87F
CRANE LAKE     CLEAR     30  30 100 CALM      29.89F
ORR            CLEAR     34  30  86 CALM      29.85S
COOK           CLEAR     32  32 100 CALM      29.87S
WALKER         FAIR      38  38  99 CALM      29.86F
$$
MNZ012-019>021-037-241000-
   Northeast Minnesota

CITY           SKY/WX    TMP DP  RH WIND       PRES   REMARKS
DULUTH         CLOUDY    47  46  97 N6        29.82F
ELY            PTCLDY    36  36 100 CALM      29.86S
HIBBING        CLEAR     34  34 100 NW5       29.85S FOG     WCI  30
EVELETH        CLEAR     40  38  93 NE3       29.86S
DULUTH HARBOR  CLOUDY    46  45  93 CALM      29.84F
TWO HARBORS    CLEAR     48  43  81 N3        29.82F
SILVER BAY     PTCLDY    43  43 100 CALM      29.83S
GRAND MARAIS     N/A     51  41  68 NE6       29.84F
G MARAIS ARPRT CLEAR     37  34  87 N8        29.85F
$$
MNZ029>031-032-039>041-046>048-054>057-064-241000-
   West Central Minnesota

CITY           SKY/WX    TMP DP  RH WIND       PRES   REMARKS
FERGUS FALLS   CLOUDY    45  45 100 N3        29.85F
WHEATON        CLOUDY    45  43  93 CALM      29.88F
MORRIS         CLEAR     43  41  93 N5        29.84S
ALEXANDRIA     PTCLDY    47  45  93 NE8       29.84F
ELBOW LAKE     FAIR      43  43 100 N3        29.86S
WADENA         MOCLDY    45  43  93 N5        29.85S
GLENWOOD       CLEAR     46  45  93 NE9       29.83F
APPLETON       CLEAR     43  39  87 CALM      29.83F
BENSON         CLEAR     39  39 100 N5        29.85S
ORTONVILLE     CLEAR     45  41  87 NW6       29.85S
MADISON        CLEAR     46  46 100 N7        29.84F
WILLMAR        FAIR      48  46  93 NE9       29.83S
$$
MNZ033>034-036-042>043-049>051-058-059-241000-
   Central Minnesota

CITY           SKY/WX    TMP DP  RH WIND       PRES   REMARKS
ST CLOUD       PTCLDY    46  44  93 N5        29.82S
SAUK CENTRE    CLOUDY    47  46  96 N5        29.83F
PAYNESVILLE    MOCLDY    47  47 100 N6        29.83S
AITKIN         CLOUDY    45  43  93 CALM      29.83F
PINE RIVER     CLOUDY    46  45  93 CALM      29.88F
BRAINERD       CLOUDY    48  47  96 N5        29.85S
STAPLES        PTCLDY    46  43  87 CALM      29.85F
LONG PRAIRIE   CLOUDY    46  45  93 N5        29.84F
LITTLE FALLS   CLOUDY    46  45  93 CALM      29.84S
LITCHFIELD     CLEAR     48  46  93 NE5       29.81F
BUFFALO        CLOUDY    48  44  85 N7        29.82S
MAPLE LAKE     CLEAR     47  45  93 N3        29.82S
HUTCHINSON     CLOUDY    48  45  88 N7        29.81F
$$
MNZ037-044-045-052-053-241000-
   East Central Minnesota

CITY           SKY/WX    TMP DP  RH WIND       PRES   REMARKS
PRINCETON      CLOUDY    48  45  87 N5        29.82S
MORA           PTCLDY    45  43  93 CALM      29.85S
CAMBRIDGE      CLOUDY    48  41  76 N7        29.81R
RUSH CITY      CLOUDY    46  43  91 N6        29.83S
MOOSE LAKE     CLOUDY    46  43  87 NE5       29.82S
HINCKLEY       PTSUNNY   45  45 100 N5        29.83S
CLOQUET        CLOUDY    46  45  93 N3        29.83F
MCGREGOR       MOCLDY    45  45 100 N3        29.85S
$$
MNZ071>073-080-081-089-090-097-098-241000-
   Southwest Minnesota

CITY           SKY/WX    TMP DP  RH WIND       PRES   REMARKS
MONTEVIDEO     CLEAR     45  45 100 N7        29.83S
CANBY          PTCLDY    45  44  94 CALM      29.85S
MARSHALL       MOCLDY    44  44 100 NW7       29.83F
REDWOOD FALLS  CLEAR     46  43  89 NW6       29.80F
OLIVIA         CLEAR     45  43  93 N8        29.81R
PIPESTONE      MOCLDY    46  43  87 N6        29.82S
WINDOM         CLEAR     45  43  93 N8        29.79S
WORTHINGTON    CLEAR     44  43  96 N10       29.80S
JACKSON        CLEAR     45  43  93 CALM      29.79R
TRACY          CLEAR     46  46  98 NW9       29.82S
SLAYTON        CLEAR     44  43  97 NW7       29.82S
$$
MNZ065>067-074>077-082>085-091>093-241000-
   South Central Minnesota

CITY           SKY/WX    TMP DP  RH WIND       PRES   REMARKS
MANKATO        CLEAR     46  44  93 N8        29.79R
NEW ULM        CLEAR    N/A N/A N/A N6        29.79S
ST JAMES       CLEAR     46  45  93 N7        29.80R
FAIRMONT       CLEAR     46  44  93 N10       29.77S
GLENCOE        CLOUDY    49  47  93 N5        29.79S
FARIBAULT      MOCLDY    48  45  87 N6        29.77S
OWATONNA       CLOUDY    48  45  87 N8        29.76S
WASECA         PTCLDY    45  43  93 N9        29.77S
ALBERT LEA     CLOUDY    50  46  87 N9        29.74S
$$
MNZ078>079-086>088-094>096-241000-
   Southeast Minnesota

CITY           SKY/WX    TMP DP  RH WIND       PRES   REMARKS
ROCHESTER      CLOUDY    48  46  93 N12       29.74S
RED WING       CLOUDY    50  43  76 NE7       29.76S
STANTON        PTCLDY    47  44  87 N9        29.76S
DODGE CENTER   CLOUDY    46  45  93 N9        29.75R
WINONA         CLOUDY    54  48  82 NE5       29.74S
AUSTIN         CLOUDY    48  45  87 N7        29.73S
PRESTON        CLOUDY    49  46  90 NE7       29.73S
$$
ABBREVIATIONS USED IN REMARKS
   TC - TEMPERATURES IN CELSIUS
  WCI - WIND CHILL INDEX
   HX - HEAT INDEX
  VSB - VISIBILITY
$$




USA.gov is the U.S. government's official web portal to all federal, state and local government web resources and services.